Regional Weather Roundup
Issued by NWS

Home | Current Version | Previous Version | Text Only | Print | Product List | Glossary Off
Versions: 1 2 3 4 5 6 7 8 9 10 11 12 13 14 15 16 17 18 19 20 21 22 23 24 25 26 27 28 29 30 31 32 33 34 35 36 37 38 39 40 41 42 43 44 45 46 47 48 49 50

000
ASUS43 KFSD 172102
RWRSD

WEATHER ROUNDUP FOR SOUTH DAKOTA
NATIONAL WEATHER SERVICE SIOUX FALLS SD
400 PM CDT THU APR 17 2014

NOTE: "FAIR" INDICATES FEW OR NO CLOUDS BELOW 12,000 FEET WITH NO
SIGNIFICANT WEATHER AND/OR OBSTRUCTIONS TO VISIBILITY.


SDZ001>005-009-010-012>017-172200-
NORTHWEST AND NORTH CENTRAL SOUTH DAKOTA

CITY           SKY/WX    TMP DP  RH WIND       PRES   REMARKS
FAITH            N/A     44  27  51 S26G33    30.10F
MOBRIDGE       CLOUDY    44  22  41 S17       30.18F
$$

SDZ012>016-024>037-041>051-057-063-072>074-172200-
SOUTHWEST AND SOUTH CENTRAL SOUTH DAKOTA

CITY           SKY/WX    TMP DP  RH WIND       PRES   REMARKS
RAPID CTY ARPT MOSUNNY   50  34  54 S24G31    30.03F
PIERRE         CLOUDY    42  23  46 SE15      30.21F
CUSTER         MOSUNNY   41  35  79 SW9       30.02S
PHILIP         PTSUNNY   48  31  51 SE20G25   30.13F
PINE RIDGE     PTSUNNY   50  35  56 S16G24    30.08F
WINNER         LGT RAIN  40  31  70 SE12      30.22F
$$

SDZ004>011-016>023-039-040-172200-
NORTHEAST SOUTH DAKOTA

CITY           SKY/WX    TMP DP  RH WIND       PRES   REMARKS
ABERDEEN       MOSUNNY   45  16  31 MISG      30.26F
WATERTOWN      MOSUNNY   39  13  34 VRB3      30.27F
SISSETON         N/A     42  17  36 NW5       30.28F
$$

SDZ017-020-022-023-036>040-048>070-172200-
SOUTHEAST SOUTH DAKOTA

CITY           SKY/WX    TMP DP  RH WIND       PRES   REMARKS
SIOUX FALLS    PTSUNNY   43  23  45 E6        30.28F
HURON          MOSUNNY   44  17  33 CALM      30.28F
CHAMBERLAIN      N/A     47  18  31 S16G22    30.24F
MITCHELL       MOSUNNY   48  15  26 CALM      30.28F
YANKTON        SUNNY     48  23  37 E6        30.28F
$$

ABBREVIATIONS USED IN REMARKS
   TC - TEMPERATURE IN CELSIUS
  WCI - WIND CHILL INDEX
   HX - HEAT INDEX
  VSB - VISIBILITY




USA.gov is the U.S. government's official web portal to all federal, state and local government web resources and services.